Binghamton, NY

12:27 AM EST on December 12, 2019 (GMT -0500)
Binghamton Regional-Link

Weather History for KBGM - May, 2019

Change the Weather History Date:

Tuesday, May 7, 2019

  Actual Average Record
Temperature  
Mean Temperature 54 °F 53 °F  
Max Temperature 63 °F 63 °F 89 °F (1982)
Min Temperature 45 °F 43 °F 26 °F (1966)
Degree Days  
Heating Degree Days 11 12  
Month to date heating degree days 62 93  
Since 1 July heating degree days 6852 6892  
Cooling Degree Days 0 0  
Month to date cooling degree days 0 0  
Year to date cooling degree days 0 4  
Growing Degree Days 4 (Base 50)    
Moisture  
Dew Point 45 °F    
Average Humidity 72    
Maximum Humidity 96    
Minimum Humidity 47    
Precipitation  
Precipitation 0.05 in 0.11 in 0.91 in (1967)
Month to date precipitation 1.20 0.76  
Year to date precipitation 12.68 11.94  
Snow  
Snow 0.00 in 0.00 in T in (1997)
Month to date snowfall 0.0 0.1  
Since 1 July snowfall 81.4 83.4  
Snow Depth 0.00 in    
Sea Level Pressure  
Sea Level Pressure 30.13 in    
Wind  
Wind Speed 7 mph (NW)    
Max Wind Speed 15 mph    
Max Gust Speed 19 mph    
Visibility 10 miles    
Events Rain    
T = Trace of Precipitation, MM = Missing Value Source: NWS Daily Summary

Daily Weather History Graph

Daily Weather History Graph

Search for Another Location

Airport or City:

Astronomy

May. 07, 2019 Rise Set
Actual Time 5:52 AM EDT 8:09 PM EDT
Civil Twilight 5:20 AM EDT 8:40 PM EDT
Nautical Twilight 4:42 AM EDT 9:19 PM EDT
Astronomical Twilight 3:59 AM EDT 10:02 PM EDT
Moon 7:55 AM EDT (5/7) 11:09 PM EDT (5/7)
Length of Visible Light 15h 19m
Length of Day
14h 17m
Waxing Crescent, 8% of the Moon is Illuminated
May 7
Waxing Crescent
May 11
First Quarter
May 18
Full
May 26
Last Quarter
Jun 3
New

Hourly Weather History & Observations

Time (EDT) Temp. Windchill Dew Point Humidity Pressure Visibility Wind Dir Wind Speed Gust Speed Precip Events Conditions
12:53 AM 57.0 °F - 37.0 °F 47% 30.07 in 10.0 mi West 3.5 mph - N/A   Overcast
1:53 AM 55.0 °F - 37.0 °F 51% 30.07 in 10.0 mi WSW 5.8 mph - N/A   Clear
2:53 AM 54.0 °F - 37.0 °F 53% 30.06 in 10.0 mi South 3.5 mph - N/A   Mostly Cloudy
3:53 AM 52.0 °F - 39.0 °F 61% 30.06 in 10.0 mi South 3.5 mph - N/A   Mostly Cloudy
4:53 AM 52.0 °F - 42.1 °F 69% 30.05 in 10.0 mi SSE 4.6 mph - N/A   Overcast
5:53 AM 52.0 °F - 39.9 °F 63% 30.06 in 10.0 mi South 3.5 mph - N/A   Overcast
6:53 AM 51.1 °F - 41.0 °F 68% 30.06 in 10.0 mi SSE 4.6 mph - N/A   Overcast
7:53 AM 55.0 °F - 44.1 °F 67% 30.09 in 10.0 mi SSE 5.8 mph - N/A   Mostly Cloudy
8:53 AM 59.0 °F - 46.9 °F 64% 30.09 in 10.0 mi SW 8.1 mph - N/A   Overcast
9:53 AM 60.1 °F - 46.9 °F 62% 30.10 in 10.0 mi West 6.9 mph - N/A   Overcast
10:53 AM 62.1 °F - 48.0 °F 60% 30.11 in 10.0 mi NW 8.1 mph - N/A   Overcast
11:53 AM 61.0 °F - 46.9 °F 60% 30.12 in 10.0 mi NW 10.4 mph - N/A   Overcast
12:53 PM 59.0 °F - 48.9 °F 69% 30.12 in 10.0 mi North 11.5 mph - N/A   Overcast
1:53 PM 61.0 °F - 48.0 °F 62% 30.12 in 10.0 mi NW 9.2 mph - N/A   Overcast
2:53 PM 57.9 °F - 48.9 °F 72% 30.14 in 10.0 mi North 10.4 mph - 0.00 in   Overcast
3:53 PM 54.0 °F - 51.1 °F 90% 30.16 in 8.0 mi North 11.5 mph - 0.00 in Rain Light Rain
4:17 PM 53.1 °F - 50.0 °F 89% 30.16 in 7.0 mi North 12.7 mph - 0.01 in Rain Light Rain
4:30 PM 52.0 °F - 48.9 °F 89% 30.16 in 8.0 mi NNW 12.7 mph - 0.02 in Rain Light Rain
4:53 PM 51.1 °F - 50.0 °F 96% 30.16 in 4.0 mi North 8.1 mph - 0.03 in Rain Light Rain
5:15 PM 51.1 °F - 50.0 °F 96% 30.17 in 10.0 mi North 9.2 mph - 0.01 in Rain Light Rain
5:53 PM 51.1 °F - 48.9 °F 92% 30.19 in 10.0 mi NNW 8.1 mph - 0.02 in Rain Light Rain
6:53 PM 50.0 °F - 48.0 °F 93% 30.18 in 10.0 mi NNW 6.9 mph - 0.00 in   Overcast
7:53 PM 48.9 °F - 46.9 °F 93% 30.19 in 10.0 mi NNW 8.1 mph - N/A   Overcast
8:10 PM 48.9 °F - 46.0 °F 90% 30.18 in 10.0 mi NW 8.1 mph - N/A   Overcast
8:20 PM 48.9 °F - 46.0 °F 90% 30.18 in 10.0 mi NW 6.9 mph - N/A   Overcast
8:53 PM 48.0 °F - 45.0 °F 89% 30.19 in 10.0 mi NNW 5.8 mph - N/A   Mostly Cloudy
9:53 PM 46.0 °F 43.1 °F 44.1 °F 93% 30.19 in 10.0 mi NNW 5.8 mph - N/A   Overcast
10:53 PM 45.0 °F 41.8 °F 43.0 °F 93% 30.21 in 10.0 mi NNW 5.8 mph - N/A   Partly Cloudy
11:53 PM 46.0 °F 43.9 °F 44.1 °F 93% 30.22 in 10.0 mi North 4.6 mph - N/A   Overcast